Bradford, PA

7:15 PM EDT on October 13, 2019 (GMT -0400)
Bradford Regional

Weather History for KBFD - August, 2019

Change the Weather History Date:

Tuesday, August 13, 2019

  Actual Average Record
Temperature  
Mean Temperature 69 °F 64 °F  
Max Temperature 73 °F 76 °F 87 °F (1988)
Min Temperature 64 °F 53 °F 37 °F (1957)
Degree Days  
Heating Degree Days 0 1  
Month to date heating degree days 11 5  
Since 1 June heating degree days 145 214  
Since 1 July heating degree days 23 69  
Cooling Degree Days 4 2  
Month to date cooling degree days 27 26  
Year to date cooling degree days 217 150  
Since 1 June cooling degree days 210 140  
Growing Degree Days 18 (Base 50)    
Moisture  
Dew Point 64 °F    
Average Humidity 83    
Maximum Humidity 93    
Minimum Humidity 73    
Precipitation  
Precipitation T in 0.12 in 1.71 in (1994)
Month to date precipitation 1.77 1.73  
Year to date precipitation 29.74 27.57  
Sea Level Pressure  
Sea Level Pressure 29.85 in    
Wind  
Wind Speed 3 mph (SW)    
Max Wind Speed 8 mph    
Max Gust Speed 12 mph    
Visibility 10 miles    
Events Rain    
T = Trace of Precipitation, MM = Missing Value Source: NWS Daily Summary

Daily Weather History Graph

Daily Weather History Graph

Search for Another Location

Airport or City:

Astronomy

Aug. 13, 2019 Rise Set
Actual Time 6:20 AM EDT 8:17 PM EDT
Civil Twilight 5:50 AM EDT 8:47 PM EDT
Nautical Twilight 5:13 AM EDT 9:24 PM EDT
Astronomical Twilight 4:33 AM EDT 10:04 PM EDT
Moon 7:32 PM EDT 4:18 AM EDT
Length of Visible Light 14h 57m
Length of Day
13h 57m
Waxing Gibbous, 97% of the Moon is Illuminated
Aug 13
Waxing Gibbous
Aug 15
Full
Aug 23
Last Quarter
Aug 30
New
Sep 5
First Quarter

Hourly Weather History & Observations

Time (EDT) Temp. Dew Point Humidity Pressure Visibility Wind Dir Wind Speed Gust Speed Precip Events Conditions
12:53 AM 68.0 °F 59.0 °F 73% 29.88 in 10.0 mi Calm Calm - N/A   Overcast
1:53 AM 66.9 °F 60.1 °F 79% 29.86 in 10.0 mi Variable 4.6 mph - N/A   Clear
2:53 AM 66.0 °F 61.0 °F 84% 29.86 in 10.0 mi Calm Calm - N/A   Clear
3:53 AM 66.0 °F 62.1 °F 87% 29.84 in 10.0 mi WSW 4.6 mph - N/A   Overcast
4:53 AM 64.9 °F 62.1 °F 90% 29.83 in 10.0 mi Calm Calm - N/A   Overcast
5:53 AM 64.0 °F 63.0 °F 96% 29.83 in 10.0 mi Calm Calm - 0.00 in   Mostly Cloudy
6:07 AM 64.0 °F 62.1 °F 93% 29.87 in 9.0 mi Calm Calm - N/A   Mostly Cloudy
6:53 AM 64.0 °F 63.0 °F 96% 29.83 in 4.0 mi South 3.5 mph - N/A   Overcast
7:10 AM 64.0 °F 63.0 °F 96% 29.88 in 4.0 mi Calm Calm - N/A   Overcast
7:44 AM 64.9 °F 63.0 °F 93% 29.89 in 9.0 mi Calm Calm - N/A   Overcast
7:53 AM 66.0 °F 63.0 °F 90% 29.85 in 10.0 mi Calm Calm - N/A   Overcast
8:53 AM 66.0 °F 62.1 °F 87% 29.86 in 10.0 mi SW 4.6 mph - N/A   Overcast
9:05 AM 66.0 °F 62.1 °F 87% 29.89 in 10.0 mi SW 6.9 mph - N/A   Overcast
9:53 AM 66.9 °F 63.0 °F 87% 29.86 in 10.0 mi WSW 8.1 mph - 0.00 in   Overcast
10:01 AM 66.9 °F 63.0 °F 87% 29.89 in 10.0 mi SW 8.1 mph - N/A   Mostly Cloudy
10:53 AM 69.1 °F 64.0 °F 84% 29.84 in 10.0 mi Variable 5.8 mph - N/A   Mostly Cloudy
11:02 AM 69.1 °F 64.0 °F 84% 29.88 in 10.0 mi WSW 6.9 mph - N/A   Overcast
11:53 AM 70.0 °F 64.0 °F 81% 29.84 in 10.0 mi WSW 8.1 mph - 0.00 in Rain Light Rain
12:53 PM 69.1 °F 64.9 °F 87% 29.83 in 10.0 mi West 3.5 mph - 0.00 in   Overcast
1:53 PM 69.1 °F 64.9 °F 87% 29.83 in 10.0 mi SW 3.5 mph - 0.00 in Rain Light Rain
2:31 PM 69.1 °F 64.9 °F 87% 29.86 in 10.0 mi Calm Calm - 0.00 in Rain Light Rain
2:46 PM 69.1 °F 64.9 °F 87% 29.86 in 10.0 mi WNW 3.5 mph - 0.00 in Rain Light Rain
2:53 PM 69.1 °F 64.9 °F 87% 29.81 in 10.0 mi Calm Calm - 0.00 in Rain Light Rain
3:00 PM 70.0 °F 64.9 °F 84% 29.85 in 10.0 mi Calm Calm - 0.00 in   Overcast
3:53 PM 71.1 °F 66.0 °F 84% 29.80 in 9.0 mi Variable 3.5 mph - 0.00 in Rain Light Rain
4:53 PM 71.1 °F 64.0 °F 78% 29.80 in 10.0 mi Calm Calm - 0.00 in   Overcast
5:27 PM 71.1 °F 64.9 °F 81% 29.84 in 10.0 mi South 3.5 mph - N/A   Overcast
5:53 PM 73.0 °F 64.9 °F 76% 29.80 in 10.0 mi SW 4.6 mph - N/A   Mostly Cloudy
6:40 PM 72.0 °F 64.9 °F 78% 29.85 in 10.0 mi SSW 3.5 mph - N/A   Mostly Cloudy
6:53 PM 71.1 °F 66.0 °F 84% 29.81 in 10.0 mi SW 3.5 mph - N/A   Scattered Clouds
7:53 PM 70.0 °F 66.0 °F 87% 29.80 in 10.0 mi Calm Calm - N/A   Clear
8:53 PM 66.9 °F 64.9 °F 93% 29.82 in 10.0 mi Calm Calm - N/A   Scattered Clouds
9:32 PM 66.0 °F 64.9 °F 96% 29.88 in 10.0 mi Calm Calm - N/A   Mostly Cloudy
9:53 PM 66.0 °F 64.9 °F 96% 29.84 in 10.0 mi Calm Calm - N/A   Overcast
10:31 PM 66.9 °F 66.0 °F 97% 29.88 in 10.0 mi Calm Calm - N/A   Overcast
10:53 PM 66.9 °F 64.9 °F 93% 29.84 in 10.0 mi Calm Calm - N/A   Mostly Cloudy
11:53 PM 66.0 °F 64.9 °F 96% 29.85 in 9.0 mi North 3.5 mph - N/A   Overcast